Content
SEND FEEDBACK

Daily
Averages
Monthly
Summary
United States of America

ST. LOUIS, MISSOURI


Home > North America > United States > Missouri
Elevation: 535 feet     Latitude: 38 45N     Longitude: 090 22W

WEATHER
 
SELECT A DAY
Number of Records: 196,318;   Date Range: 1/1/95 - 7/23/14
 
SHARE

PRINT THIS DATA

[ ← Previous Day ]
WEATHER ALMANAC - MAY 3, 2013
[ Next Day → ]
[ °C ]   °F
Weather ElementAverageHighLow
Temperature41.4 °F43 °F (1:54 am)39 °F (8:54 am)
Dewpoint38.3 °F39.9 °F (1:54 am)35.6 °F (9:15 am)
Humidity88.9 %93 % (8:54 am)85 % (12:54 pm)
Barometer29.94 in30.08 in (1:54 am)29.84 in (7:02 pm)
Wind Speed8.1 mph11.5 mph (5:14 am)
Wind Gust16.1 mph (9:54 am)
Weather ElementAverage
Visibility5.7 mi
Wind DirectionWNW (287.5 °)

Weather ElementTotal
Precipitation3.77 in
Heating Degree Days24 (Base 65)
Averaged from 52 records on May 3, 2013
WEATHER CONDITIONS BREAKOUT
WIND DIRECTION BREAKOUT
WEATHER BY HOUR - MAY 3, 2013
[ °C ]   °F
Local TimeTemperatureDewpointHumidityBarometerVisibilityWind DirectionWind SpeedGust SpeedPrecipitationEventsConditions
1:54 AM43.0 °F39.9 °F89 %30.08 in4.0 miWNW (300°)9.2 mph0.13 inRainRain
2:15 AM42.8 °F39.2 °F87 %30.05 in4.0 miNNW (330°)10.4 mph0.05 inRainRain
2:31 AM42.8 °F39.2 °F87 %30.06 in6.0 miNW (320°)9.2 mph0.08 inRainRain
2:54 AM42.1 °F39.0 °F89 %30.05 in7.0 miNW (310°)6.9 mph0.14 inRainLight Rain
3:11 AM42.8 °F39.2 °F87 %30.05 in10.0 miWest (270°)5.8 mph0.01 inRainLight Rain
3:21 AM42.8 °F39.2 °F87 %30.05 in10.0 miWest (280°)8.1 mph0.01 inRainLight Rain
3:54 AM42.1 °F39.0 °F89 %30.04 in10.0 miWNW (290°)9.2 mph0.02 inRainLight Rain
4:17 AM42.8 °F39.2 °F87 %30.04 in8.0 miWNW (290°)9.2 mph0.02 inRainLight Rain
4:54 AM41.0 °F37.9 °F89 %30.03 in5.0 miWNW (300°)8.1 mph0.08 inRainLight Rain
5:14 AM41.0 °F37.4 °F87 %30.02 in10.0 miNW (310°)11.5 mph0.00 inRainLight Rain
5:23 AM41.0 °F37.4 °F87 %30.01 in10.0 miNW (310°)8.1 mph0.00 inRainLight Rain
5:32 AM41.0 °F37.4 °F87 %30.01 in10.0 miWNW (300°)10.4 mph0.00 inRainLight Rain
5:54 AM41.0 °F37.9 °F89 %30.02 in5.0 miWest (280°)8.1 mph0.01 inRainLight Rain
6:54 AM39.9 °F37.0 °F89 %30.01 in10.0 miNW (310°)10.4 mph0.01 inRainLight Rain
7:54 AM39.9 °F37.0 °F89 %30.00 in2.5 miWNW (300°)9.2 mph0.15 inRainHeavy Rain
8:54 AM39.0 °F37.0 °F93 %30.01 in2.5 miWest (270°)10.4 mph0.19 inRainRain
9:08 AM39.2 °F37.4 °F93 %29.99 in2.5 miWest (280°)10.4 mph0.05 inRainHeavy Rain
9:15 AM39.2 °F35.6 °F87 %30.00 in2.5 miWest (270°)11.5 mph0.07 inRainRain
9:51 AM39.2 °F35.6 °F87 %29.97 in2.5 miNW (310°)10.4 mph0.18 inRainRain
9:54 AM39.0 °F36.0 °F89 %29.99 in2.5 miWNW (300°)6.9 mph16.1 mph0.18 inRainLight Rain
10:06 AM39.2 °F37.4 °F93 %29.97 in4.0 miNW (310°)6.9 mph0.01 inRainLight Rain
10:51 AM39.2 °F37.4 °F93 %29.95 in2.5 miNW (320°)10.4 mph0.08 inRainRain
10:54 AM39.9 °F37.0 °F89 %29.97 in2.5 miNW (320°)6.9 mph0.09 inRainRain
11:54 AM41.0 °F37.9 °F89 %29.96 in2.5 miNW (310°)6.9 mph0.15 inRainRain
12:01 PM41.0 °F37.4 °F87 %29.94 in4.0 miWNW (300°)8.1 mph0.02 inRainRain
12:20 PM41.0 °F37.4 °F87 %29.93 in4.0 miNNW (330°)8.1 mph0.06 inRainRain
12:54 PM42.1 °F37.9 °F85 %29.92 in4.0 miNNW (330°)6.9 mph0.13 inRainRain
1:10 PM42.8 °F39.2 °F87 %29.92 in3.0 miWNW (300°)6.9 mph0.05 inRainRain
1:52 PM42.8 °F39.2 °F87 %29.90 in2.5 miWNW (290°)6.9 mph0.18 inRainRain
1:54 PM42.1 °F39.0 °F89 %29.91 in2.5 miWNW (290°)6.9 mph0.18 inRainRain
2:51 PM42.8 °F39.2 °F87 %29.89 in2.5 miWNW (300°)8.1 mph0.16 inRainLight Rain
2:54 PM42.1 °F39.0 °F89 %29.90 in2.5 miWNW (300°)6.9 mph0.16 inRainLight Rain
2:59 PM42.8 °F39.2 °F87 %29.88 in6.0 miNW (320°)5.8 mph0.01 inRainLight Rain
3:22 PM42.8 °F39.2 °F87 %29.87 in7.0 miWNW (300°)10.4 mph0.04 inRainLight Rain
3:40 PM42.8 °F39.2 °F87 %29.87 in8.0 miWNW (290°)8.1 mph0.06 inRainLight Rain
3:54 PM42.1 °F39.0 °F89 %29.88 in9.0 miWNW (290°)11.5 mph0.07 inRainLight Rain
4:54 PM42.1 °F39.0 °F89 %29.87 in8.0 miWest (280°)6.9 mph0.07 inRainLight Rain
5:54 PM42.1 °F39.0 °F89 %29.87 in4.0 miWest (280°)5.8 mph0.14 inRainRain
6:10 PM42.8 °F39.2 °F87 %29.86 in3.0 miWest (270°)10.4 mph0.05 inRainRain
6:20 PM42.8 °F39.2 °F87 %29.85 in3.0 miWNW (290°)8.1 mph0.08 inRainRain
6:54 PM41.0 °F39.0 °F93 %29.86 in4.0 miWNW (290°)6.9 mph0.17 inRainRain
7:02 PM42.8 °F39.2 °F87 %29.84 in4.0 miWNW (300°)9.2 mph0.02 inRainRain
7:54 PM41.0 °F39.0 °F93 %29.87 in5.0 miWest (260°)4.6 mph0.11 inRainRain
8:35 PM41.0 °F39.2 °F93 %29.84 in6.0 miWest (260°)5.8 mph0.08 inRainRain
8:40 PM41.0 °F39.2 °F93 %29.84 in6.0 miWest (260°)6.9 mph0.09 inRainLight Rain
8:54 PM41.0 °F39.0 °F93 %29.85 in7.0 miWest (260°)6.9 mph0.11 inRainLight Rain
9:54 PM42.1 °F39.0 °F89 %29.87 in9.0 miSW (230°)6.9 mph0.01 inRainLight Rain
10:54 PM41.0 °F39.0 °F93 %29.86 in10.0 miWSW (240°)6.9 mph0.01 inRainLight Rain
11:03 PM41.0 °F39.2 °F93 %29.85 in6.0 miWSW (240°)10.4 mph0.00 inOvercast
11:37 PM41.0 °F37.4 °F87 %29.85 in10.0 miSW (220°)6.9 mph0.00 inOvercast
11:52 PM41.0 °F37.4 °F87 %29.85 in10.0 miSW (220°)5.8 mph0.00 inOvercast
11:54 PM41.0 °F37.9 °F89 %29.87 in10.0 miSW (220°)5.8 mph0.00 inOvercast
Hourly data recorded from KSUS, located miles away from St. Louis, Missouri







STORIES FROM OUR PARTNERS